DW6368 Weather Reports


Display with metric or nautical units.
time (UTC)temp
F
wind
direction
speed
MPH
gust
MPH
rain 1hr
in
rain 24hr
in
rain mn
in
humidity
%
barometer
mb
20260506222803 75 240 6.0 11.0 0.00 0.00 0.00 58 1015.1
20260506221802 75 220 4.0 12.0 0.00 0.00 0.00 61 1015.0
20260506215803 74 236 5.0 14.0 0.00 0.00 0.00 61 1015.5
20260506214824 74 212 2.0 12.0 0.00 0.00 0.00 59 1015.6
20260506212803 74 224 5.0 11.0 0.00 0.00 0.00 60 1015.8
20260506211803 74 232 4.0 11.0 0.00 0.00 0.00 60 1016.0
20260506205803 73 229 4.0 11.0 0.00 0.00 0.00 58 1016.1
20260506204803 73 250 4.0 12.0 0.00 0.00 0.00 60 1016.2
20260506202802 73 212 4.0 10.0 0.00 0.00 0.00 61 1016.4
20260506201803 73 216 3.0 10.0 0.00 0.00 0.00 60 1016.6
20260506195803 72 221 4.0 10.0 0.00 0.00 0.00 63 1016.7
20260506194802 73 211 3.0 11.0 0.00 0.00 0.00 61 1016.8
20260506192803 72 208 3.0 9.0 0.00 0.00 0.00 61 1016.9
20260506191803 72 222 4.0 9.0 0.00 0.00 0.00 64 1017.0
20260506185803 73 219 2.0 9.0 0.00 0.00 0.00 64 1017.2
20260506184803 72 210 2.0 7.0 0.00 0.00 0.00 66 1017.3
20260506182803 72 210 3.0 7.0 0.00 0.00 0.00 67 1017.4
20260506181824 71 201 3.0 10.0 0.00 0.00 0.00 68 1017.4
20260506175802 71 177 2.0 6.0 0.00 0.00 0.00 71 1017.5
20260506174803 70 225 5.0 12.0 0.00 0.00 0.00 70 1017.6
20260506172803 69 213 2.0 9.0 0.00 0.00 0.00 70 1017.5
20260506171802 69 170 3.0 6.0 0.00 0.00 0.00 71 1017.5
20260506165824 70 178 2.0 7.0 0.00 0.00 0.00 68 1017.4
20260506164802 69 200 2.0 7.0 0.00 0.00 0.00 68 1017.4
20260506162802 69 317 2.0 6.0 0.00 0.00 0.00 68 1017.5
20260506161803 68 207 2.0 5.0 0.00 0.00 0.00 70 1017.4
20260506155824 67 147 1.0 5.0 0.00 0.00 0.00 72 1017.6
20260506154803 67 119 2.0 5.0 0.00 0.00 0.00 74 1017.6
20260506152802 65 61 3.0 5.0 0.00 0.00 0.00 77 1017.6
20260506151824 63 79 2.0 5.0 0.00 0.00 0.00 79 1017.7
20260506145803 61 93 2.0 5.0 0.00 0.00 0.00 81 1017.6
20260506144803 60 105 2.0 5.0 0.00 0.00 0.00 84 1017.6
20260506142823 56 88 1.0 3.0 0.00 0.00 0.00 95 1017.6
20260506141803 55 82 1.0 4.0 0.00 0.00 0.00 99 1017.5
20260506135803 52 63 0.0 2.0 0.00 0.00 0.00 98 1017.4
20260506134802 52 324 0.0 1.0 0.00 0.00 0.00 98 1017.4
20260506132803 52 264 0.0 1.0 0.00 0.00 0.00 97 1017.3
20260506131802 52 297 0.0 1.0 0.00 0.00 0.00 97 1017.0
20260506125803 52 51 0.0 1.0 0.00 0.00 0.00 96 1016.8
20260506124802 52 15 0.0 1.0 0.00 0.00 0.00 96 1016.8
20260506122803 52 309 0.0 0.0 0.00 0.00 0.00 96 1016.5
20260506121803 53 9 0.0 1.0 0.00 0.00 0.00 96 1016.5
20260506115802 53 37 0.0 1.0 0.00 0.00 0.00 96 1016.4
20260506114803 53 18 0.0 1.0 0.00 0.00 0.00 96 1016.4
20260506112802 54 51 0.0 1.0 0.00 0.00 0.00 96 1016.2
20260506111803 54 42 0.0 1.0 0.00 0.00 0.00 96 1016.3
20260506105803 54 83 0.0 2.0 0.00 0.03 0.00 97 1016.2
20260506104803 54 59 1.0 2.0 0.00 0.03 0.00 95 1016.3
20260506102823 55 9 0.0 1.0 0.00 0.03 0.00 95 1016.2
20260506101803 55 39 0.0 1.0 0.00 0.03 0.00 95 1016.2
20260506095803 55 37 0.0 1.0 0.00 0.03 0.00 95 1016.3
20260506094803 55 90 1.0 1.0 0.00 0.03 0.00 95 1016.3
20260506092803 56 59 0.0 1.0 0.00 0.03 0.00 95 1016.4
20260506091803 56 106 0.0 1.0 0.00 0.04 0.00 95 1016.4
20260506085803 55 115 0.0 1.0 0.00 0.05 0.00 94 1016.5
20260506084803 56 93 0.0 1.0 0.00 0.05 0.00 93 1016.5
20260506082803 56 165 0.0 1.0 0.00 0.06 0.00 94 1016.6
20260506081803 56 337 0.0 1.0 0.00 0.09 0.00 94 1016.7
20260506072803 56 134 0.0 2.0 0.00 0.16 0.13 93 1016.7
20260506071845 56 151 0.0 2.0 0.00 0.16 0.13 93 1016.7
20260506061802 57 318 0.0 1.0 0.00 0.19 0.13 91 1016.3
20260506044803 60 237 1.0 2.0 0.00 0.20 0.13 85 1015.4
20260506042803 60 224 1.0 3.0 0.00 0.20 0.13 83 1015.3
20260506041802 61 226 0.0 2.0 0.00 0.20 0.13 82 1015.3
20260506035803 61 185 0.0 2.0 0.00 0.20 0.13 79 1014.9
20260506034803 62 224 1.0 4.0 0.00 0.20 0.13 78 1014.8
20260506032802 62 231 1.0 3.0 0.00 0.20 0.13 77 1014.7
20260506031803 63 242 2.0 3.0 0.00 0.20 0.13 76 1014.5
20260506025802 63 248 1.0 6.0 0.00 0.20 0.13 76 1014.1
20260506024803 64 248 3.0 6.0 0.00 0.20 0.13 74 1013.7
20260506022803 65 248 3.0 6.0 0.00 0.20 0.13 70 1013.4
20260506021803 65 238 2.0 6.0 0.00 0.20 0.13 69 1013.4
20260506015803 66 239 2.0 6.0 0.00 0.20 0.13 69 1013.4
20260506014804 65 281 2.0 6.0 0.00 0.20 0.13 67 1013.3
20260506012802 68 251 2.0 5.0 0.00 0.20 0.13 66 1013.1
20260506011803 68 222 3.0 11.0 0.00 0.20 0.13 64 1013.1
20260506005803 68 237 2.0 6.0 0.00 0.20 0.13 66 1013.1
20260506004802 68 232 2.0 9.0 0.00 0.20 0.13 64 1013.1
20260506002803 70 241 3.0 10.0 0.00 0.20 0.13 63 1012.9
20260506001802 70 263 3.0 10.0 0.00 0.20 0.13 62 1013.0
20260505235802 70 229 4.0 10.0 0.00 0.20 0.13 61 1013.0
20260505234803 70 243 4.0 11.0 0.00 0.20 0.13 60 1013.0
20260505232802 70 250 6.0 12.0 0.00 0.20 0.13 58 1013.1
20260505231803 70 253 6.0 12.0 0.00 0.20 0.13 62 1013.1
20260505225802 68 241 6.0 12.0 0.00 0.20 0.13 64 1013.1
20260505224803 68 238 5.0 15.0 0.00 0.20 0.13 61 1013.3